Location: Civís
(42.4648°N, 1.4232°E)
Time: 18:00:25
(UTC+00:00)

Cosmos 1441 Rocket - Pass Details

Date: 23 November 2025
Orbit: 425 x 449 km, 81.1° (Epoch: 04 December)

Event Time Altitude Azimuth Distance (km) Brightness Sun altitude
Rises 04:36:36 0° 172° (S) 2,379 6.7 -25.2°
Reaches altitude 10° 04:38:44 10° 163° (SSE) 1,515 5.8 -24.8°
Maximum altitude 04:41:47 37° 95° (E) 686 4.3 -24.3°
Drops below altitude 10° 04:44:53 10° 27° (NNE) 1,525 5.8 -23.7°
Sets 04:47:01 0° 19° (NNE) 2,396 6.7 -23.3°
